Regional Weather Roundup
Issued by NWS Portland, ME

Current Version | Previous Version | Text Only | Print | Product List | Glossary Off
Versions: 1 2 3 4 5 6 7 8 9 10 11 12 13 14 15 16 17 18 19 20 21 22 23 24 25 26 27 28 29 30 31 32 33 34 35 36 37 38 39 40 41 42 43 44 45 46 47 48 49 50
000 ASUS41 KGYX 262105 RWRGYX WEATHER ROUNDUP FOR MAINE AND NEW HAMPSHIRE NATIONAL WEATHER SERVICE GRAY ME 500 PM EDT TUE SEP 26 2017 MEZ002-005-006-010-012-015-018-020-021-024-026-027-029-262200- MAINE CITY SKY/WX TMP DP RH WIND PRES REMARKS PORTLAND SUNNY 74 66 76 S8 29.97S SANFORD SUNNY 81 70 69 S5 29.98S BAR HARBOR SUNNY 73 66 78 SW10 29.97F WISCASSET SUNNY 76 66 71 SE3 29.98S ROCKLAND SUNNY 69 64 84 S7 29.98R FRYEBURG MOSUNNY 83 70 64 CALM 29.97S LEWISTONAUBURN MOSUNNY 83 70 64 S9 29.96S AUGUSTA SUNNY 83 68 60 S8 29.96F WATERVILLE MOSUNNY 84 72 67 S3 29.93F BANGOR MOSUNNY 85 67 54 S8 29.94F GREENVILLE N/A 84 64 50 NW3 29.97S MILLINOCKET SUNNY 83 67 58 CALM 29.93S HOULTON SUNNY 87 61 41 CALM 29.90S PRESQUE ISLE SUNNY 83 65 54 N6 29.93S FRENCHVILLE SUNNY 76 60 57 N12 29.96R CARIBOU MOSUNNY 85 62 46 N6 29.93R $$ NHZ002-005-008-009-011-012-014-262200- NEW HAMPSHIRE CITY SKY/WX TMP DP RH WIND PRES REMARKS PORTSMOUTH PTSUNNY 80 70 70 SE6 29.96S ROCHESTER SUNNY 82 69 64 SE6 29.97S NASHUA SUNNY 86 70 58 CALM 29.97F HX 90 MANCHESTER PTSUNNY 86 68 54 S7 29.95F CONCORD SUNNY 86 69 56 S8 29.96F HX 90 LACONIA SUNNY 84 70 62 NE3 29.98S BERLIN SUNNY 86 58 38 CALM 29.99S WHITEFIELD MOSUNNY 87 61 41 NW6 29.98F JAFFREY SUNNY 86 65 49 S3 30.01S KEENE MOSUNNY 85 71 63 CALM 29.98S HX 90 LEBANON MOSUNNY 87 63 44 W3 29.96S MT WASHINGTON PTSUNNY 63 55 77 VRB6 N/A $$ VTZ005-007-008-262200- VERMONT CITY SKY/WX TMP DP RH WIND PRES REMARKS ST JOHNSBURY N/A 86 61 42 MISG 29.95S MONTPELIER MOSUNNY 85 62 46 CALM 30.02F BURLINGTON PTSUNNY 89 71 55 NW5 29.94F HX 95 $$ MAZ007-012-024-CTZ003-RIZ002-NYZ038-NYZ072-262200- SOUTHERN NEW ENGLAND AND NY CITY SKY/WX TMP DP RH WIND PRES REMARKS BOSTON PTSUNNY 78 69 73 E7 29.97F WORCESTER MOSUNNY 82 64 54 S5 30.01F NANTUCKET PTSUNNY 64 64 100 SE3 30.01S FOG PROVIDENCE PTSUNNY 79 68 69 S10 29.99F HARTFORD MOSUNNY 87 65 47 S7 29.97F ALBANY PTSUNNY 89 65 44 CALM 29.96F HX 91 NEW YORK CITY PTSUNNY 81 67 62 E6 29.97F $$ ANZ081-ANZ082-ANZ150-NHZ014-MEZ023>029-262200- COASTAL MARINE OBSERVATIONS STATION/POSITION TIME TEMP WIND PRES WAVE AIR SEA DIR/SP/G HT/PER (UTC) (F) (DEG/KT/KT) (MB) (FT/S) MOUNT DESERT ROC 2100 61 180/ 9/ 9 1015.6F MATINICUS ROCK 2000 61 210/ 9/ 9 1015.3F ISLE OF SHOALS 2000 73 160/ 12/ 12 1014.7F JEFFREYS LEDGE 2036 65 N/A 4/13 GEORGES BANK BUO 1950 77 77 1015.8 11/14 $$ .............KEY.............. WCI - WIND CHILL TC - TEMPERATURE IN CELSIUS VSB - VISIBILITY IN MILES HX - HEAT INDEX FAIR- INDICATES FEW OR NO CLOUDS BELOW 12,000 FT, WITH NO SIGNIFICANT WEATHER AND/OR OBSTRUCTIONS TO VISIBILITY.

USA.gov is the U.S. government's official web portal to all federal, state and local government web resources and services.